Content
SEND FEEDBACK

Daily
Averages
Monthly
Summary
United States of America

HARFORD, NEW YORK


Home > North America > United States > New York
Elevation: 1228 feet     Latitude: 42 26N     Longitude: 076 15W

WEATHER
 
SELECT A DAY
Number of Records: 159,305;   Date Range: 1/1/95 - 9/18/14
 
SHARE

PRINT THIS DATA

[ ← Previous Day ]
WEATHER ALMANAC - MARCH 6, 2014
[ Next Day → ]
[ °C ]   °F
Weather ElementAverageHighLow
Temperature13 °F29.1 °F (3:56 pm)-8.9 °F (3:56 am)
Dewpoint-3.6 °F2.1 °F (5:56 pm)-13.9 °F (3:56 am)
Humidity52.8 %83 % (1:56 am)28 % (12:56 pm)
Barometer30.55 in30.67 in (8:56 am)30.39 in (11:56 pm)
Wind Speed5.4 mph12.7 mph (10:56 pm)
Weather ElementAverage
Visibility10 mi
Wind DirectionESE (111.7 °)

Weather ElementTotal
Precipitation---
Heating Degree Days54.9 (Base 65)
Averaged from 24 records on March 6, 2014
WEATHER CONDITIONS BREAKOUT
WIND DIRECTION BREAKOUT
WEATHER BY HOUR - MARCH 6, 2014
[ °C ]   °F
Local TimeTemperatureDewpointHumidityBarometerVisibilityWind DirectionWind SpeedGust SpeedPrecipitationEventsConditions
1:56 AM-4.9 °F-8.9 °F83 %30.61 in10.0 miCalmClear
2:56 AM-6.9 °F-10.8 °F83 %30.61 in10.0 miCalmClear
3:56 AM-8.9 °F-13.9 °F79 %30.61 in10.0 miCalmClear
4:56 AM-4.0 °F-8.0 °F83 %30.62 in10.0 miENE (60°)5.8 mphClear
5:56 AM-4.9 °F-9.9 °F79 %30.64 in10.0 miENE (60°)5.8 mphClear
6:16 AM-7.6 °F-13.0 °F77 %30.56 in10.0 miEast (100°)4.6 mphClear
6:56 AM-8.0 °F-11.9 °F83 %30.66 in10.0 miENE (70°)5.8 mphClear
7:56 AM2.1 °F-1.8 °F83 %30.66 in10.0 miEast (80°)3.5 mphClear
8:56 AM8.1 °F0.1 °F70 %30.67 in10.0 miSSE (160°)3.5 mphClear
9:56 AM15.1 °F1.0 °F54 %30.65 in10.0 miSSW (200°)3.5 mphClear
10:56 AM18.1 °F1.0 °F47 %30.63 in10.0 miSSE (160°)4.6 mphClear
11:56 AM21.0 °F-0.9 °F38 %30.59 in10.0 miCalmClear
12:56 PM24.1 °F-4.9 °F28 %30.56 in10.0 miSE (140°)5.8 mphClear
1:56 PM26.1 °F-2.9 °F28 %30.53 in10.0 miESE (120°)9.2 mphClear
2:56 PM28.0 °F-1.8 °F28 %30.50 in10.0 miSSE (160°)5.8 mphClear
3:56 PM29.1 °F0.1 °F29 %30.49 in10.0 miSSE (150°)6.9 mphClear
4:56 PM28.0 °F1.0 °F31 %30.47 in10.0 miSSE (160°)5.8 mphClear
5:56 PM26.1 °F2.1 °F36 %30.46 in10.0 miSouth (170°)4.6 mphClear
6:56 PM24.1 °F-0.9 °F34 %30.47 in10.0 miSE (140°)5.8 mphClear
7:56 PM23.0 °F0.1 °F37 %30.44 in10.0 miSE (140°)8.1 mphClear
8:56 PM23.0 °F-1.8 °F34 %30.43 in10.0 miSE (140°)8.1 mphClear
9:56 PM22.1 °F-0.9 °F37 %30.43 in10.0 miSSE (150°)10.4 mphClear
10:56 PM21.0 °F0.1 °F40 %30.40 in10.0 miSSE (160°)12.7 mphClear
11:56 PM19.0 °F1.0 °F46 %30.39 in10.0 miSSE (160°)10.4 mphClear
Hourly data recorded from KITH, located miles away from Harford, New York







STORIES FROM OUR PARTNERS